Location: Palau
(42.3086°N, 3.1507°E)
Time: 12:28:15
(UTC+00:00)

X-37B - Pass Details

Date: 11 March 2021
Orbit: 380 x 394 km, 45.0° (Epoch: 07 April)

Event Time Altitude Azimuth Distance (km) Brightness Sun altitude
Rises 19:13:30 0° 228° (SW) 2,261 5.0 -16.3°
Reaches altitude 10° 19:15:39 10° 219° (SW) 1,413 3.8 -16.7°
Enters shadow 19:18:24 35° 161° (SSE) 643 1.4 -17.2°
